CAPE
0 0 0 0 0 0 0 0 0 0 0 0 0 0 0 0 0 0 0 0 0 0 0 0 0 0 0 0 0 0 0 0 0 0 0 0 0 0 0 0 0 0 236 375 479
0 0 0 0 0 0 0 0 0 0 0 0 0 0 0 0 0 0 0 0 0 0 0 0 0 0 0 0 0 0 0 0 0 0 0 0 0 0 0 0 0 0 0 0 523
0 0 0 0 0 0 0 0 0 0 0 0 0 0 0 0 0 0 0 0 0 0 0 0 0 0 0 0 0 0 0 0 0 0 0 0 0 0 0 0 0 0 0 0 0
0 0 0 0 0 0 0 0 0 0 0 0 0 0 0 0 0 0 0 0 0 0 0 0 0 0 0 0 0 0 0 0 0 0 0 0 0 0 0 0 0 0 0 0 0
0 0 0 0 0 0 0 0 0 0 0 0 0 0 0 0 0 0 0 0 0 0 0 0 0 0 0 0 0 0 0 0 0 0 0 0 0 0 0 0 0 0 0 24 49
0 0 0 0 0 0 0 0 0 0 0 0 0 0 0 0 0 0 0 0 0 0 0 0 0 0 0 0 0 0 0 0 0 0 0 0 0 0 0 0 0 0 0 33 20
0 0 0 0 0 0 0 0 0 0 0 0 0 0 0 0 0 0 0 0 0 0 0 0 0 0 0 0 0 0 0 0 0 0 0 0 0 0 0 0 0 0 6 7 102
0 0 0 0 0 0 0 0 0 0 0 0 0 0 0 0 0 0 0 0 0 0 0 0 0 0 0 0 0 0 0 0 0 0 0 0 0 0 1 2 2 0 5 13 4
0 0 0 0 0 0 0 0 0 0 0 0 0 0 0 0 0 0 0 0 0 0 0 0 0 0 0 0 0 0 0 0 0 0 0 0 0 1 0 17 6 0 6 22 2
0 0 0 0 0 0 0 0 0 0 0 0 0 0 0 0 0 0 0 0 0 0 0 0 0 0 0 0 0 0 0 0 0 0 1 0 2 2 0 21 38 68 26 32 2
0 0 0 0 0 0 0 0 0 0 0 0 0 0 0 0 0 0 0 0 0 0 0 0 0 0 0 0 0 0 0 0 0 0 0 0 1 2 1 0 0 1 0 1 11
0 0 0 0 0 0 0 0 0 0 0 0 0 0 0 0 0 0 0 0 0 0 0 0 0 0 0 0 0 0 0 0 0 0 0 0 0 0 0 1 3 3 1 0 1
0 0 0 0 0 0 0 0 0 0 0 0 0 0 0 0 0 0 0 0 0 0 0 0 0 0 0 0 0 0 0 0 0 0 0 0 0 0 0 0 0 0 0 2 3
0 0 0 0 0 0 0 0 0 0 0 0 0 0 0 0 0 0 0 0 0 0 0 0 0 0 0 0 0 0 0 0 0 0 0 0 0 0 0 1 0 4 1 0 1
0 0 0 0 0 0 0 0 0 0 0 0 0 0 0 0 0 0 0 0 0 0 0 0 0 0 0 0 0 0 0 0 0 0 0 0 0 0 0 0 1 2 3 0 0
0 0 0 0 0 0 0 0 0 0 0 0 0 0 0 0 0 0 0 0 0 0 0 0 0 0 0 0 0 0 0 0 0 0 0 0 0 0 0 1 1 2 0 0 0
0 0 0 0 0 0 0 0 0 0 0 0 0 0 0 0 0 0 0 0 0 0 0 0 0 0 0 0 0 0 0 0 0 0 0 0 0 0 0 0 2 2 0 0 0
0 0 0 0 0 0 0 0 0 0 0 0 0 0 0 0 0 0 0 0 0 0 0 0 0 0 0 0 0 0 0 0 0 0 0 0 0 0 0 0 0 0 0 0 0
0 0 0 0 0 0 0 0 0 0 0 0 0 0 0 0 0 0 0 0 0 0 0 0 0 0 0 0 0 0 0 0 0 0 0 0 0 0 0 0 0 0 0 0 0
0 0 0 0 0 0 0 0 0 0 0 0 0 0 0 0 0 0 0 0 0 0 0 0 0 0 0 0 0 0 0 0 0 0 0 0 0 0 0 0 0 0 0 0 0
0 0 0 0 0 0 0 0 0 0 0 0 0 0 0 0 0 0 0 0 0 0 0 0 0 0 0 0 0 0 0 0 0 0 0 0 0 0 0 0 0 0 0 0 0
0 0 0 0 0 0 0 0 0 0 0 0 0 0 0 0 0 0 0 0 0 0 0 0 0 0 0 0 0 0 0 0 0 0 0 0 0 0 0 0 0 0 0 0 0
0 0 0 0 0 0 0 0 0 0 0 0 0 0 0 0 0 0 0 0 0 0 0 0 0 0 0 0 0 0 0 0 0 0 0 0 0 0 0 0 0 0 0 0 0
0 0 0 0 0 0 0 0 0 0 0 0 0 0 0 0 0 0 0 0 0 0 0 0 0 0 0 0 0 0 0 0 0 0 0 0 0 0 0 0 0 0 0 0 0
0 0 0 0 0 0 0 0 0 0 0 0 0 0 0 0 0 0 0 0 0 0 0 0 0 0 0 0 0 0 0 0 0 0 0 0 0 0 0 0 0 0 0 0 0
0 0 0 0 0 0 0 0 0 0 0 0 0 0 0 0 0 0 0 0 0 0 0 0 0 0 0 0 0 0 0 0 0 0 0 0 0 0 0 0 0 0 0 0 0
0 0 0 0 0 0 0 0 0 0 0 0 0 0 0 0 0 0 0 0 0 0 0 0 0 0 0 0 0 0 0 0 0 0 0 0 0 0 0 0 0 0 0 0 0
CIN
-0 -0 -0 -0 -0 -0 -0 -0 -0 -0 -0 -0 -0 -0 -0 -0 -0 -0 -0 -0 -0 -0 -0 -0 -0 -0 -0 -0 -0 -0 -0 -0 -0 -0 -0 -0 -0 -0 -0 -0 -0 -0 -45 -121 -98
-0 -0 -0 -0 -0 -0 -0 -0 -0 -0 -0 -0 -0 -0 -0 -0 -0 -0 -0 -0 -0 -0 -0 -0 -0 -0 -0 -0 -0 -0 -0 -0 -0 -0 -0 -0 -0 -0 -0 -0 -0 -0 -0 -0 -32
-0 -0 -0 -0 -0 -0 -0 -0 -0 -0 -0 -0 -0 -0 -0 -0 -0 -0 -0 -0 -0 -0 -0 -0 -0 -0 -0 -0 -0 -0 -0 -0 -0 -0 -0 -0 -0 -0 -0 -0 -0 -0 -0 -0 -0
-0 -0 -0 -0 -0 -0 -0 -0 -0 -0 -0 -0 -0 -0 -0 -0 -0 -0 -0 -0 -0 -0 -0 -0 -0 -0 -0 -0 -0 -0 -0 -0 -0 -0 -0 -0 -0 -0 -0 -0 -0 -0 -0 -0 -10
-0 -0 -0 -0 -0 -0 -0 -0 -0 -0 -0 -0 -0 -0 -0 -0 -0 -0 -0 -0 -0 -0 -0 -0 -0 -0 -0 -0 -0 -0 -0 -0 -0 -0 -0 -0 -0 -0 -0 -0 -0 -0 -0 -52 -61
-0 -0 -0 -0 -0 -0 -0 -0 -0 -0 -0 -0 -0 -0 -0 -0 -0 -0 -0 -0 -0 -0 -0 -0 -0 -0 -0 -0 -0 -0 -0 -0 -0 -0 -0 -0 -0 -0 -0 -0 -0 -0 -0 -43 -69
-0 -0 -0 -0 -0 -0 -0 -0 -0 -0 -0 -0 -0 -0 -0 -0 -0 -0 -0 -0 -0 -0 -0 -0 -0 -0 -0 -0 -0 -0 -0 -0 -0 -0 -0 -0 -0 -0 -0 -0 -0 -0 -7 -55 -13
-0 -0 -0 -0 -0 -0 -0 -0 -0 -0 -0 -0 -0 -0 -0 -0 -0 -0 -0 -0 -0 -0 -0 -0 -0 -0 -0 -0 -0 -0 -0 -0 -0 -0 -0 -0 -0 -0 -142 -9 -15 -0 -98 -0 -96
-0 -0 -0 -0 -0 -0 -0 -0 -0 -0 -0 -0 -0 -0 -0 -0 -0 -0 -0 -0 -0 -0 -0 -0 -0 -0 -0 -0 -0 -0 -0 -0 -0 -0 -0 -0 -0 -0 -23 -88 -57 -0 -4 -6 -0
-0 -0 -0 -0 -0 -0 -0 -0 -0 -0 -0 -0 -0 -0 -0 -0 -0 -0 -0 -0 -0 -0 -0 -0 -0 -0 -0 -0 -0 -0 -0 -0 -0 -0 -3 -0 -0 -0 -0 -62 -71 -30 -2 -3 -1
-0 -0 -0 -0 -0 -0 -0 -0 -0 -0 -0 -0 -0 -0 -0 -0 -0 -0 -0 -0 -0 -0 -0 -0 -0 -0 -0 -0 -0 -0 -0 -0 -0 -0 -0 -2 -0 -0 -0 -0 -0 -0 -0 -0 -3
-0 -0 -0 -0 -0 -0 -0 -0 -0 -0 -0 -0 -0 -0 -0 -0 -0 -0 -0 -0 -0 -0 -0 -0 -0 -0 -0 -0 -0 -0 -0 -0 -0 -0 -0 -0 -0 -0 -0 -0 -0 -0 -0 -0 -0
-0 -0 -0 -0 -0 -0 -0 -0 -0 -0 -0 -0 -0 -0 -0 -0 -0 -0 -0 -0 -0 -0 -0 -0 -0 -0 -0 -0 -0 -0 -0 -0 -0 -0 -0 -0 -0 -0 -0 -0 -0 -0 -0 -0 -0
-0 -0 -0 -0 -0 -0 -0 -0 -0 -0 -0 -0 -0 -0 -0 -0 -0 -0 -0 -0 -0 -0 -0 -0 -0 -0 -0 -0 -0 -0 -0 -0 -0 -0 -0 -0 -0 -0 -0 -0 -0 -0 -0 -0 -0
-0 -0 -0 -0 -0 -0 -0 -0 -0 -0 -0 -0 -0 -0 -0 -0 -0 -0 -0 -0 -0 -0 -0 -0 -0 -0 -0 -0 -0 -0 -0 -0 -0 -0 -0 -0 -0 -0 -0 -0 -0 -0 -0 -0 -0
-0 -0 -0 -0 -0 -0 -0 -0 -0 -0 -0 -0 -0 -0 -0 -0 -0 -0 -0 -0 -0 -0 -0 -0 -0 -0 -0 -0 -0 -0 -0 -0 -0 -0 -0 -0 -0 -0 -0 -0 -0 -0 -0 -0 -0
-0 -0 -0 -0 -0 -0 -0 -0 -0 -0 -0 -0 -0 -0 -0 -0 -0 -0 -0 -0 -0 -0 -0 -0 -0 -0 -0 -0 -0 -0 -0 -0 -0 -0 -0 -0 -0 -0 -0 -0 -0 -0 -0 -0 -0
-0 -0 -0 -0 -0 -0 -0 -0 -0 -0 -0 -0 -0 -0 -0 -0 -0 -0 -0 -0 -0 -0 -0 -0 -0 -0 -0 -0 -0 -0 -0 -0 -0 -0 -0 -0 -0 -0 -0 -0 -0 -0 -0 -0 -0
-0 -0 -0 -0 -0 -0 -0 -0 -0 -0 -0 -0 -0 -0 -0 -0 -0 -0 -0 -0 -0 -0 -0 -0 -0 -0 -0 -0 -0 -0 -0 -0 -0 -0 -0 -0 -0 -0 -0 -0 -0 -0 -0 -0 -0
-0 -0 -0 -0 -0 -0 -0 -0 -0 -0 -0 -0 -0 -0 -0 -0 -0 -0 -0 -0 -0 -0 -0 -0 -0 -0 -0 -0 -0 -0 -0 -0 -0 -0 -0 -0 -0 -0 -0 -0 -0 -0 -0 -0 -0
-0 -0 -0 -0 -0 -0 -0 -0 -0 -0 -0 -0 -0 -0 -0 -0 -0 -0 -0 -0 -0 -0 -0 -0 -0 -0 -0 -0 -0 -0 -0 -0 -0 -0 -0 -0 -0 -0 -0 -0 -0 -0 -0 -0 -0
-0 -0 -0 -0 -0 -0 -0 -0 -0 -0 -0 -0 -0 -0 -0 -0 -0 -0 -0 -0 -0 -0 -0 -0 -0 -0 -0 -0 -0 -0 -0 -0 -0 -0 -0 -0 -0 -0 -0 -0 -0 -0 -0 -0 -0
-0 -0 -0 -0 -0 -0 -0 -0 -0 -0 -0 -0 -0 -0 -0 -0 -0 -0 -0 -0 -0 -0 -0 -0 -0 -0 -0 -0 -0 -0 -0 -0 -0 -0 -0 -0 -0 -0 -0 -0 -0 -0 -0 -0 -0
-0 -0 -0 -0 -0 -0 -0 -0 -0 -0 -0 -0 -0 -0 -0 -0 -0 -0 -0 -0 -0 -0 -0 -0 -0 -0 -0 -0 -0 -0 -0 -0 -0 -0 -0 -0 -0 -0 -0 -0 -0 -0 -0 -0 -0
-0 -0 -0 -0 -0 -0 -0 -0 -0 -0 -0 -0 -0 -0 -0 -0 -0 -0 -0 -0 -0 -0 -0 -0 -0 -0 -0 -0 -0 -0 -0 -0 -0 -0 -0 -0 -0 -0 -0 -0 -0 -0 -0 -0 -0
-0 -0 -0 -0 -0 -0 -0 -0 -0 -0 -0 -0 -0 -0 -0 -0 -0 -0 -0 -0 -0 -0 -0 -0 -0 -0 -0 -0 -0 -0 -0 -0 -0 -0 -0 -0 -0 -0 -0 -0 -0 -0 -0 -0 -0
-0 -0 -0 -0 -0 -0 -0 -0 -0 -0 -0 -0 -0 -0 -0 -0 -0 -0 -0 -0 -0 -0 -0 -0 -0 -0 -0 -0 -0 -0 -0 -0 -0 -0 -0 -0 -0 -0 -0 -0 -0 -0 -0 -0 -0
Wind_Speed
21 22 23 24 25 26 27 28 28 28 28 29 29 29 28 27 23 25 28 26 26 28 28 29 31 31 24 22 22 20 22 26 28 28 28 31 33 30 33 29 27 24 24 26 17
21 22 23 24 25 26 27 27 28 28 29 29 29 28 26 24 20 27 24 26 26 26 29 32 33 28 23 23 22 22 24 26 24 29 32 35 36 36 33 37 26 29 26 22 22
20 22 23 24 25 26 27 27 27 28 28 29 29 26 23 20 20 25 22 25 25 25 26 27 27 25 26 23 25 23 24 26 29 33 35 36 38 34 34 33 29 33 34 32 28
19 21 22 24 25 26 27 28 28 28 28 28 26 25 22 19 21 22 22 25 24 24 24 28 26 25 25 26 24 24 22 28 29 30 33 33 32 34 29 34 35 33 34 33 29
19 20 22 24 25 26 27 28 28 27 27 25 23 23 19 21 22 19 22 24 22 24 27 29 29 25 30 24 23 27 29 28 24 22 26 29 32 33 35 34 33 29 29 29 20
19 21 23 25 26 27 28 28 29 28 26 22 21 21 19 20 18 20 23 21 24 24 28 30 27 25 23 22 26 25 24 27 24 19 17 17 28 23 28 31 32 30 26 21 19
19 22 24 25 26 27 28 28 29 27 22 20 19 18 20 19 18 20 21 19 20 23 25 26 27 29 23 21 22 26 30 28 30 25 16 13 19 19 24 25 28 25 27 24 20
20 22 24 25 26 27 28 28 27 23 20 18 18 17 18 17 17 21 22 18 17 18 22 22 24 24 27 24 24 26 29 34 32 28 19 17 6 19 18 19 24 24 20 23 20
19 22 23 25 27 27 28 27 22 19 19 17 18 17 17 17 19 19 20 18 17 17 18 19 22 24 23 23 32 28 33 32 27 28 20 20 11 16 14 15 18 15 25 20 20
19 21 24 25 27 28 28 23 18 18 17 16 17 17 18 18 18 19 18 17 17 18 19 18 19 26 25 26 41 30 27 28 28 26 29 24 28 8 10 14 16 17 13 13 12
20 21 23 25 27 27 24 18 17 18 19 18 18 16 17 19 16 19 19 18 18 18 21 18 29 34 28 26 28 30 29 29 25 24 32 33 26 8 7 11 13 12 13 11 11
18 21 23 24 25 25 18 17 17 16 17 18 16 16 16 17 17 20 22 18 19 21 21 19 29 24 23 22 26 26 29 27 25 26 24 26 29 2 3 9 14 13 11 15 12
17 20 22 23 23 19 18 17 17 17 17 18 16 15 16 16 16 20 21 18 19 20 22 22 19 21 21 22 24 21 24 23 20 16 21 18 27 21 3 9 11 11 11 12 11
16 19 22 25 17 17 17 18 18 17 16 17 16 15 16 15 16 17 18 18 18 19 18 17 16 20 15 16 15 19 20 23 22 22 25 21 26 21 8 8 8 11 12 11 12
15 18 19 20 17 16 16 16 17 17 18 15 15 15 15 16 17 18 17 17 18 18 18 17 16 19 18 14 13 13 16 18 21 21 23 21 25 19 20 16 10 13 12 11 11
14 16 18 17 17 16 15 16 16 17 16 15 15 16 15 18 17 17 18 18 16 17 16 13 14 16 14 5 14 12 14 10 13 17 21 19 22 18 17 15 16 10 11 10 11
12 15 15 16 15 16 15 16 17 15 16 14 14 15 16 18 18 18 18 19 18 18 17 15 14 14 16 16 14 15 14 17 20 21 20 14 20 18 18 18 12 12 9 9 13
10 13 16 15 16 15 15 16 16 14 12 14 15 15 15 18 17 18 16 17 19 17 17 17 16 17 16 18 16 10 12 14 19 21 19 15 19 18 20 22 22 10 10 11 13
9 13 14 16 16 14 14 15 14 13 13 13 15 16 15 16 18 19 17 17 16 17 17 17 15 14 14 15 16 13 17 13 17 16 17 17 17 17 17 18 19 21 13 12 12
10 13 16 18 15 13 13 15 12 11 12 13 13 14 15 17 18 18 17 15 15 15 15 14 16 14 15 15 15 15 13 14 14 16 17 15 15 14 17 18 15 14 16 14 14
13 17 18 17 14 14 15 12 10 11 12 13 13 13 14 17 17 18 18 17 15 15 15 15 15 15 15 17 14 14 13 14 13 14 16 15 12 15 18 17 17 18 14 12 12
14 21 18 15 15 16 14 13 13 11 11 12 13 14 14 15 17 18 17 17 15 15 15 14 15 15 13 13 13 13 12 13 13 12 12 11 10 14 16 15 16 15 16 14 12
18 21 18 16 19 16 16 16 15 14 12 12 11 13 14 16 18 17 17 16 15 14 15 15 15 18 18 14 13 11 11 11 12 11 10 11 10 15 14 13 14 13 13 13 13
21 26 23 20 21 19 17 18 18 15 15 14 14 13 14 16 16 18 18 17 15 15 15 16 14 14 16 16 14 11 10 9 10 9 9 8 10 15 17 15 15 13 11 11 10
23 26 22 23 23 20 18 17 16 18 17 14 16 12 14 18 18 19 18 16 15 16 15 15 17 14 11 12 11 5 4 6 3 5 6 8 8 14 17 17 15 12 10 8 8
26 26 23 25 21 17 19 18 16 17 15 17 17 14 12 17 16 18 13 13 14 12 13 15 18 16 14 13 11 2 7 9 6 8 13 12 9 12 15 14 13 12 9 6 6
24 22 23 25 24 21 23 21 18 16 18 20 14 16 13 12 13 18 14 16 14 13 8 14 13 16 13 19 21 7 9 11 3 5 9 6 8 8 11 14 14 12 9 5 3
Wind_Direction
343 344 342 350 345 345 349 350 350 343 340 344 346 353 359 4 20 21 16 18 13 7 12 12 7 356 14 15 2 0 342 331 327 322 314 316 303 296 294 285 281 290 279 271 255
340 340 344 347 340 345 347 350 348 342 340 343 344 355 4 12 28 17 25 20 19 19 17 12 6 25 34 25 15 3 346 339 335 326 317 307 299 293 288 277 267 276 282 275 254
339 337 338 343 341 343 343 345 346 343 344 343 344 359 13 22 22 14 29 21 19 23 26 26 30 38 37 31 14 7 351 343 331 323 318 311 300 295 282 263 265 269 268 267 257
342 338 344 335 338 339 337 337 340 345 347 348 358 5 16 28 15 21 30 16 20 29 37 28 39 44 36 33 26 16 7 351 341 333 323 316 309 291 268 258 262 263 268 262 257
346 344 338 335 335 337 334 331 334 340 347 355 8 7 24 21 20 34 26 22 33 31 32 31 38 39 30 35 32 21 9 2 355 342 334 327 301 281 261 254 258 256 261 263 249
345 342 335 334 330 329 329 325 324 332 342 3 12 12 23 17 33 29 22 36 33 35 31 33 36 39 44 39 33 27 23 18 19 13 3 1 297 273 262 256 247 245 253 265 252
340 333 329 329 327 325 322 319 319 329 354 11 16 24 26 26 32 27 24 40 47 39 35 39 38 42 45 43 41 38 35 40 37 39 50 47 323 278 273 250 237 236 247 260 255
333 329 324 322 324 322 318 318 322 343 0 14 20 27 22 32 36 24 19 34 47 46 41 47 42 44 44 43 48 42 43 36 42 45 65 65 259 289 281 236 227 236 244 259 258
335 328 327 323 321 320 314 316 343 359 4 20 18 22 21 29 19 22 24 31 40 43 46 49 46 46 49 53 42 45 39 41 47 49 65 71 98 292 275 233 220 234 233 258 263
336 332 327 322 318 315 314 330 360 2 11 15 21 18 17 12 17 20 28 36 37 36 41 55 60 50 54 55 34 47 49 50 53 55 60 74 58 294 261 217 209 218 229 262 289
331 332 328 325 319 319 332 353 357 357 359 1 4 12 15 4 25 21 21 29 39 38 31 58 34 30 49 63 64 61 58 58 63 73 68 67 80 336 233 207 217 223 253 297 306
333 329 326 325 323 323 356 356 360 3 359 4 10 15 17 12 15 9 4 25 27 23 34 46 30 51 69 72 66 64 62 66 79 76 70 75 77 39 227 209 220 222 238 281 285
337 330 324 324 325 354 0 3 5 9 356 359 11 16 17 13 16 7 10 29 27 24 31 37 55 62 71 72 63 68 70 72 81 79 77 87 80 94 207 211 227 258 289 289 284
339 335 329 319 349 353 355 357 356 5 357 358 9 18 19 18 15 21 27 31 32 30 39 53 68 58 81 73 75 69 81 82 80 80 77 85 92 93 162 217 242 278 298 297 285
342 337 336 342 350 349 355 359 358 0 345 2 7 17 14 13 8 6 32 31 29 36 43 49 61 56 61 78 77 85 88 91 83 76 84 86 94 95 119 151 265 297 274 285 300
349 342 334 355 355 360 1 1 5 351 347 357 4 3 7 359 6 11 20 29 39 33 45 63 70 67 73 151 79 69 106 123 104 82 84 85 93 111 119 139 158 268 304 294 310
354 341 344 353 1 2 12 3 351 352 354 6 7 5 2 354 359 7 15 15 18 21 24 43 60 66 60 66 91 81 107 78 73 68 75 95 92 109 114 120 190 197 295 323 339
359 347 341 354 351 356 11 359 353 6 14 359 2 2 3 355 359 3 13 9 19 29 25 26 32 45 57 57 71 121 115 83 64 66 83 100 94 107 91 91 80 308 292 316 339
9 338 337 343 341 358 360 354 1 14 13 16 1 358 3 0 349 354 1 5 19 25 21 22 35 51 63 58 63 96 87 117 95 103 88 97 106 113 102 70 66 67 13 343 333
327 321 320 312 338 4 1 348 8 13 11 4 10 2 3 352 351 355 359 11 16 25 29 32 18 43 45 50 56 72 96 84 93 73 68 96 100 107 126 113 80 38 34 8 1
306 302 310 316 334 340 333 350 9 358 355 357 356 354 356 347 345 345 345 358 8 17 22 22 17 24 34 31 43 45 62 71 89 90 65 66 82 137 132 117 105 97 51 0 348
295 289 305 310 313 321 323 336 342 353 351 353 350 344 345 346 341 338 339 345 3 4 3 13 9 7 22 31 41 34 49 53 62 76 92 86 92 139 127 116 112 99 91 56 10
282 288 299 300 298 301 312 319 325 330 335 345 347 344 342 337 334 333 334 345 353 354 357 4 357 346 356 13 23 34 36 48 52 87 88 70 89 129 117 114 122 104 93 80 53
278 281 284 284 294 297 299 304 306 315 319 326 333 338 335 327 330 329 331 336 344 343 347 346 346 342 343 356 16 27 25 34 36 60 81 118 105 146 154 142 137 123 105 90 69
273 277 278 281 279 282 290 301 302 304 308 315 323 319 325 321 321 317 321 332 340 334 333 336 331 339 348 352 359 22 34 31 97 116 78 79 132 166 164 156 145 127 111 87 58
265 268 276 280 284 272 278 289 291 297 302 306 307 321 318 315 319 322 332 332 336 339 330 328 327 337 345 347 350 326 204 195 187 185 198 191 179 165 155 144 143 140 126 100 77
263 272 271 273 274 273 275 282 287 292 294 300 302 310 307 310 327 326 330 331 334 335 338 327 333 336 344 336 333 338 221 200 205 169 176 180 171 118 140 157 159 154 145 128 71